K3TLB Weather Reports


time (UTC)temp
F
wind
direction
speed
knots
gust
knots
rain 1hr
in
rain 24hr
in
rain mn
in
humidity
%
barometer
mb
20260507070014 53 329 3.5 12.2 0.00 0.70 0.00 69 1010.8
20260507065513 53 324 3.5 12.2 0.00 0.70 0.00 71 1010.8
20260507065012 53 330 3.5 11.3 0.00 0.70 0.00 74 1010.8
20260507064513 53 305 1.7 9.6 0.00 0.70 0.00 76 1010.9
20260507064012 53 328 2.6 13.9 0.00 0.70 0.00 77 1010.9
20260507063513 53 314 3.5 13.9 0.00 0.70 0.00 79 1010.8
20260507063244 53 303 4.3 13.9 0.00 0.70 0.00 80 1010.8
20260507062744 53 308 5.2 13.9 0.00 0.70 0.00 82 1010.9
20260507062244 53 343 2.6 13.0 0.00 0.70 0.00 84 1010.8
20260507061511 53 296 0.9 7.8 0.00 0.70 0.00 86 1010.8
20260507061011 53 338 0.9 7.8 0.00 0.70 0.00 86 1010.9
20260507060510 53 318 0.9 9.6 0.00 0.70 0.00 86 1010.9
20260507060010 53 327 0.9 9.6 0.00 0.70 0.00 86 1010.8
20260507055511 53 331 1.7 8.7 0.00 0.70 0.00 86 1010.6
20260507055009 53 308 2.6 10.4 0.00 0.70 0.00 87 1010.5
20260507054504 53 338 4.3 10.4 0.00 0.70 0.00 87 1010.5
20260507054006 53 344 5.2 10.4 0.00 0.70 0.00 87 1010.5
20260507053502 53 327 3.5 10.4 0.00 0.70 0.00 87 1010.5
20260507053004 53 339 0.9 7.8 0.00 0.70 0.00 87 1010.5
20260507052735 53 321 0.9 7.8 0.00 0.70 0.00 87 1010.6
20260507052003 53 341 0.9 7.8 0.00 0.70 0.00 87 1010.9
20260507051504 53 346 0.0 3.5 0.00 0.70 0.00 88 1010.9
20260507050958 53 321 0.9 8.7 0.00 0.70 0.00 88 1010.8
20260507050458 53 317 1.7 8.7 0.00 0.70 0.00 88 1010.6
20260507050000 53 342 2.6 10.4 0.00 0.70 0.00 88 1010.6
20260507045458 54 327 2.6 10.4 0.00 0.70 0.00 88 1010.8
20260507044958 54 316 2.6 8.7 0.00 0.70 0.00 88 1010.9
20260507044500 54 325 2.6 8.7 0.00 0.70 0.00 88 1011.0
20260507043954 54 310 1.7 8.7 0.00 0.70 0.00 88 1011.1
20260507043455 54 313 0.9 7.0 0.00 0.70 0.00 88 1010.9
20260507043225 54 9 0.9 7.0 0.00 0.70 0.00 88 1011.0
20260507042455 55 329 2.6 8.7 0.00 0.70 0.00 88 1010.9
20260507041954 55 344 3.5 8.7 0.00 0.70 0.00 87 1010.8
20260507041728 55 326 2.6 7.8 0.00 0.70 0.00 87 1010.8
20260507040950 55 345 1.7 7.0 0.00 0.70 0.00 87 1011.0
20260507040451 55 337 1.7 7.8 0.00 0.70 0.00 87 1010.9
20260507035948 55 298 0.9 7.8 0.00 0.70 0.70 87 1011.0
20260507035450 55 306 0.0 7.0 0.00 0.70 0.70 88 1010.9
20260507034949 55 298 0.0 0.0 0.00 0.70 0.70 87 1010.6
20260507034448 55 281 0.0 0.0 0.00 0.70 0.70 87 1011.0
20260507034221 55 337 0.0 0.0 0.00 0.70 0.70 88 1010.5
20260507033449 55 254 0.0 0.0 0.00 0.70 0.70 87 1010.9
20260507032948 55 311 0.0 0.0 0.00 0.70 0.70 87 1010.6
20260507032717 56 259 0.0 0.0 0.00 0.70 0.70 87 1010.2
20260507031943 56 348 0.9 7.0 0.00 0.70 0.70 87 1010.2
20260507031442 56 343 2.6 9.6 0.00 0.70 0.70 87 1010.3
20260507030939 56 334 4.3 9.6 0.00 0.70 0.70 87 1010.6
20260507030439 56 333 4.3 11.3 0.00 0.70 0.70 87 1010.5
20260507025937 56 324 2.6 11.3 0.00 0.70 0.70 87 1010.8
20260507025438 56 308 3.5 11.3 0.00 0.70 0.70 87 1010.4
20260507024937 56 323 5.2 11.3 0.00 0.70 0.70 87 1010.4
20260507024438 56 319 4.3 11.3 0.00 0.70 0.70 87 1010.6
20260507023932 56 320 4.3 11.3 0.00 0.70 0.70 87 1010.6
20260507023432 57 300 5.2 11.3 0.00 0.70 0.70 87 1010.5
20260507022932 57 291 6.1 11.3 0.00 0.70 0.70 87 1010.4
20260507022435 57 318 5.2 13.0 0.00 0.70 0.70 87 1010.2
20260507022431 57 304 6.1 10.4 0.00 0.70 0.70 87 1010.3
20260507021431 58 344 4.3 11.3 0.00 0.70 0.70 87 1010.1
20260507021157 58 346 5.2 16.5 0.00 0.70 0.70 87 1009.9
20260507020427 58 313 4.3 16.5 0.00 0.70 0.70 87 1010.1
20260507015927 58 329 5.2 13.0 0.00 0.70 0.70 86 1010.0
20260507015425 58 335 6.1 13.0 0.00 0.70 0.70 86 1010.2
20260507014925 58 304 5.2 11.3 0.00 0.70 0.70 87 1010.2
20260507014657 59 313 6.1 11.3 0.00 0.70 0.70 87 1010.0
20260507013922 59 304 6.1 10.4 0.00 0.70 0.70 87 1010.2
20260507013421 58 291 4.3 8.7 0.00 0.70 0.70 87 1010.3
20260507012920 59 310 3.5 7.0 0.00 0.70 0.70 88 1010.3
20260507012419 59 304 1.7 7.0 0.00 0.70 0.70 88 1010.3
20260507011919 59 313 0.9 7.0 0.00 0.70 0.70 88 1010.3
20260507011420 59 266 1.7 10.4 0.00 0.70 0.70 88 1010.2
20260507010913 59 305 2.6 10.4 0.00 0.70 0.70 88 1010.0
20260507010414 59 289 3.5 9.6 0.00 0.70 0.70 89 1009.9
20260507005912 59 294 3.5 7.8 0.00 0.70 0.70 89 1010.1
20260507005413 59 284 3.5 8.7 0.00 0.70 0.70 89 1009.9
20260507004913 59 292 3.5 8.7 0.00 0.70 0.70 90 1009.7
20260507004413 59 299 2.6 8.7 0.00 0.70 0.70 91 1009.8
20260507004138 59 286 2.6 7.0 0.00 0.70 0.70 91 1009.8
20260507003410 59 281 1.7 7.0 0.00 0.70 0.70 91 1009.6
20260507002908 59 282 0.9 7.0 0.00 0.70 0.70 90 1009.4
20260507002640 59 300 1.7 9.6 0.00 0.70 0.70 90 1009.3
20260507002138 59 293 1.7 9.6 0.00 0.70 0.70 91 1009.3
20260507001638 59 257 1.7 7.8 0.00 0.70 0.70 90 1009.3
20260507000900 60 286 1.7 9.6 0.00 0.70 0.70 90 1009.1
20260507000629 60 254 1.7 9.6 0.00 0.70 0.70 90 1008.9
20260506235857 60 257 2.6 9.6 0.00 0.70 0.70 91 1008.8
20260506235355 60 317 4.3 11.3 0.00 0.70 0.70 91 1008.7
20260506234855 60 273 5.2 11.3 0.00 0.70 0.70 92 1008.4
20260506234350 60 303 2.6 11.3 0.00 0.70 0.70 92 1008.3
20260506233851 60 292 2.6 9.6 0.00 0.70 0.70 93 1008.3
20260506233620 61 292 3.5 9.6 0.00 0.70 0.70 93 1008.0
20260506232849 61 286 2.6 8.7 0.00 0.70 0.70 93 1008.0
20260506232349 61 286 4.3 11.3 0.01 0.70 0.70 94 1008.0
20260506232121 61 306 6.1 13.9 0.14 0.70 0.70 94 1008.0
20260506231617 61 264 5.2 13.9 0.15 0.70 0.70 94 1008.0
20260506231114 62 295 5.2 13.9 0.19 0.70 0.70 94 1007.8
20260506230344 62 306 7.0 13.9 0.22 0.70 0.70 94 1007.9
20260506225845 63 280 5.2 13.0 0.24 0.70 0.70 95 1008.0
20260506225615 64 313 1.7 11.3 0.25 0.70 0.70 97 1007.8
20260506224842 64 321 0.0 0.0 0.25 0.70 0.70 97 1007.9
20260506224336 64 253 0.0 0.0 0.25 0.70 0.70 97 1007.9
20260506223837 64 266 0.0 0.0 0.25 0.70 0.70 97 1007.6
20260506223337 64 243 0.0 0.0 0.25 0.70 0.70 96 1007.7
20260506222837 64 241 0.9 7.8 0.25 0.70 0.70 95 1007.5
20260506222337 64 279 1.7 7.8 0.24 0.69 0.70 95 1007.5
20260506221837 65 248 2.6 7.8 0.11 0.56 0.56 94 1007.8
20260506221331 65 262 2.6 9.6 0.10 0.55 0.55 93 1007.4
20260506220830 65 193 3.5 9.6 0.06 0.51 0.51 92 1007.3
20260506220601 66 200 3.5 8.7 0.03 0.48 0.48 91 1007.3
20260506215832 66 184 2.6 8.7 0.01 0.46 0.46 90 1007.2
20260506215331 67 202 1.7 8.7 0.00 0.45 0.45 89 1007.0
20260506214831 67 211 2.6 7.8 0.00 0.45 0.45 89 1007.1
20260506214326 67 188 5.2 9.6 0.00 0.45 0.45 88 1007.1
20260506213827 67 198 5.2 9.6 0.00 0.45 0.45 87 1007.0
20260506213555 68 193 3.5 8.7 0.00 0.45 0.45 88 1007.0
20260506212825 67 216 1.7 8.7 0.00 0.45 0.45 88 1006.8
20260506212324 67 202 1.7 8.7 0.00 0.45 0.45 87 1006.8
20260506212055 67 251 3.5 8.7 0.00 0.45 0.45 88 1006.8
20260506211549 67 229 4.3 10.4 0.00 0.45 0.45 88 1006.7
20260506210819 67 242 2.6 10.4 0.00 0.45 0.45 88 1006.9
20260506210551 67 232 3.5 9.6 0.00 0.45 0.45 88 1006.9
20260506210050 67 215 4.3 10.4 0.00 0.45 0.45 89 1006.7
20260506205318 67 251 5.2 10.4 0.00 0.45 0.45 88 1006.7
20260506204818 67 203 5.2 10.4 0.00 0.45 0.45 89 1006.7
20260506204317 67 238 4.3 10.4 0.00 0.45 0.45 89 1006.8
20260506204044 67 200 4.3 9.6 0.00 0.45 0.45 89 1006.7
20260506203315 67 185 2.6 7.8 0.00 0.45 0.45 89 1006.7
20260506202313 67 202 0.9 7.8 0.00 0.45 0.45 90 1006.7
20260506201814 66 228 3.5 7.8 0.00 0.45 0.45 90 1006.7
20260506201308 66 190 3.5 8.7 0.00 0.45 0.45 90 1006.6
20260506201040 66 198 2.6 8.7 0.00 0.45 0.45 91 1006.8
20260506200309 66 197 2.6 9.6 0.00 0.45 0.45 91 1006.6
20260506195809 66 218 2.6 9.6 0.00 0.45 0.45 90 1006.8
20260506195538 66 205 1.7 7.8 0.00 0.45 0.45 92 1006.7
20260506194806 65 237 3.5 9.6 0.00 0.45 0.45 93 1006.8
20260506194304 65 206 5.2 10.4 0.00 0.45 0.45 92 1007.0
20260506193804 65 221 3.5 10.4 0.00 0.45 0.45 92 1007.0
20260506193304 65 239 1.7 7.8 0.00 0.45 0.45 93 1006.8
20260506192803 65 247 2.6 8.7 0.00 0.45 0.45 93 1006.9
20260506192300 65 232 2.6 8.7 0.00 0.45 0.45 94 1007.0
20260506191800 64 226 2.6 9.6 0.00 0.45 0.45 94 1007.0
20260506191254 64 213 4.3 9.6 0.00 0.45 0.45 93 1007.0
20260506190754 64 252 4.3 9.6 0.00 0.45 0.45 93 1006.9
20260506190254 64 196 3.5 9.6 0.00 0.45 0.45 94 1007.0
20260506185755 64 208 3.5 7.8 0.00 0.45 0.45 94 1007.0
20260506185525 64 222 3.5 7.8 0.00 0.45 0.45 95 1007.0
20260506184756 63 204 3.5 9.6 0.00 0.45 0.45 95 1007.2
20260506184520 63 217 2.6 9.6 0.00 0.45 0.45 96 1007.2
20260506183747 63 198 3.5 9.6 0.00 0.45 0.45 96 1007.2
20260506183248 62 203 4.3 9.6 0.00 0.45 0.45 96 1007.3
20260506182749 62 227 5.2 9.6 0.00 0.45 0.45 96 1007.3
20260506182248 62 230 4.3 9.6 0.00 0.45 0.45 96 1007.3
20260506181748 62 202 3.5 8.7 0.00 0.45 0.45 96 1007.3
20260506181518 62 196 3.5 8.7 0.00 0.45 0.45 97 1007.4
20260506180748 62 197 4.3 10.4 0.00 0.45 0.45 97 1007.5
20260506180249 62 182 4.3 10.4 0.00 0.45 0.45 97 1007.3
20260506180015 62 192 4.3 10.4 0.00 0.45 0.45 97 1007.3
20260506175508 61 219 5.2 10.4 0.00 0.45 0.45 97 1007.4
20260506174738 61 219 4.3 12.2 0.00 0.45 0.45 97 1007.5
20260506174514 61 232 6.1 13.0 0.00 0.45 0.45 97 1007.5
20260506174239 61 226 4.3 12.2 0.00 0.45 0.45 97 1007.5
20260506173238 61 220 4.3 13.0 0.00 0.45 0.45 97 1007.4
20260506172738 61 227 4.3 9.6 0.00 0.45 0.45 97 1007.5
20260506172233 61 173 7.0 13.0 0.00 0.45 0.45 97 1007.5
20260506171734 61 236 7.0 13.0 0.00 0.45 0.45 98 1007.4
20260506171234 61 248 5.2 18.2 0.00 0.45 0.45 98 1007.4
20260506170734 61 213 4.3 18.2 0.00 0.45 0.45 98 1007.5
20260506170234 61 214 3.5 10.4 0.00 0.45 0.45 98 1007.5
20260506165734 61 204 3.5 10.4 0.00 0.45 0.45 98 1007.5
20260506165235 61 193 1.7 7.0 0.00 0.45 0.45 98 1007.4
20260506165230 61 198 3.5 8.7 0.00 0.45 0.45 98 1007.6
20260506164230 61 186 1.7 7.0 0.00 0.45 0.45 98 1007.5
20260506163731 60 193 1.7 7.0 0.00 0.45 0.45 98 1007.5
20260506163231 60 198 2.6 9.6 0.00 0.45 0.45 98 1007.3
20260506162732 60 250 4.3 9.6 0.00 0.45 0.45 98 1007.5
20260506162223 60 176 4.3 9.6 0.00 0.45 0.45 98 1007.5
20260506161724 60 180 5.2 9.6 0.01 0.45 0.45 98 1007.4
20260506161228 60 190 5.2 10.4 0.03 0.45 0.45 99 1007.5
20260506161224 60 217 5.2 9.6 0.02 0.45 0.45 98 1007.6
20260506160222 60 203 6.1 10.4 0.04 0.45 0.45 98 1007.6
20260506155722 60 225 5.2 8.7 0.06 0.45 0.45 98 1007.6
20260506155457 60 151 6.1 11.3 0.09 0.45 0.45 98 1007.7
20260506155221 60 200 5.2 11.3 0.08 0.45 0.45 98 1007.7
20260506154218 60 158 7.0 13.9 0.11 0.45 0.45 98 1007.6
20260506153718 60 213 5.2 13.9 0.13 0.45 0.45 98 1007.6
20260506153447 60 194 2.6 10.4 0.15 0.45 0.45 98 1007.6
20260506152716 60 198 4.3 10.4 0.20 0.45 0.45 98 1007.4
20260506152207 60 184 3.5 8.7 0.22 0.45 0.45 98 1007.4
20260506151708 60 180 4.3 10.4 0.23 0.44 0.44 98 1007.5
20260506151206 60 174 4.3 10.4 0.22 0.43 0.43 98 1007.3
20260506150703 60 139 3.5 7.8 0.20 0.41 0.42 98 1007.5
20260506150203 60 146 4.3 8.7 0.21 0.41 0.41 98 1007.6
20260506145937 60 162 2.6 8.7 0.19 0.39 0.39 98 1007.8
20260506145159 60 167 2.6 10.4 0.19 0.37 0.37 98 1008.0
20260506144700 60 155 5.2 10.4 0.18 0.35 0.36 97 1008.2
20260506144157 60 198 6.1 10.4 0.19 0.34 0.34 97 1008.2
20260506143658 60 180 6.1 10.4 0.18 0.32 0.32 97 1008.4
20260506143159 60 169 4.3 10.4 0.17 0.30 0.30 97 1008.4
20260506142928 61 178 2.6 8.7 0.14 0.25 0.25 97 1008.4
20260506142153 61 212 2.6 7.0 0.13 0.22 0.23 97 1008.3
20260506141654 61 212 2.6 9.6 0.13 0.21 0.21 97 1008.2
20260506141153 61 189 1.7 9.6 0.13 0.21 0.21 97 1008.1
20260506140654 61 175 0.9 5.2 0.13 0.21 0.21 97 1007.9
20260506140152 61 217 2.6 6.1 0.12 0.20 0.20 97 1007.9
20260506135651 60 183 4.3 10.4 0.12 0.20 0.20 96 1007.8
20260506135416 60 184 3.5 10.4 0.10 0.18 0.19 96 1007.7
20260506134645 60 176 2.6 9.6 0.10 0.17 0.17 96 1007.8
20260506134417 60 161 3.5 9.6 0.09 0.15 0.15 95 1007.8
20260506133646 61 187 3.5 8.7 0.08 0.14 0.14 95 1008.1
20260506133146 61 159 3.5 8.7 0.07 0.13 0.13 95 1008.1
20260506132647 61 204 4.3 9.6 0.06 0.11 0.12 94 1008.2
20260506132144 61 198 5.2 9.6 0.05 0.09 0.10 94 1008.1
20260506131641 61 212 3.5 10.4 0.04 0.08 0.09 94 1008.1
20260506131141 61 194 3.5 10.4 0.05 0.08 0.08 94 1008.0
20260506130642 61 198 3.5 8.7 0.05 0.08 0.08 94 1008.2
20260506130140 61 180 3.5 8.7 0.06 0.08 0.08 93 1007.9
20260506125640 61 184 1.7 8.7 0.06 0.08 0.08 93 1008.0
20260506125134 61 179 1.7 8.7 0.07 0.08 0.08 93 1008.2
20260506124634 61 192 1.7 8.7 0.06 0.07 0.07 93 1008.1
20260506124136 61 190 3.5 9.6 0.06 0.06 0.06 92 1008.0
20260506123634 61 222 3.5 9.6 0.06 0.06 0.06 92 1008.1
20260506123134 61 206 3.5 9.6 0.06 0.06 0.06 92 1008.2
20260506122633 61 208 5.2 10.4 0.05 0.05 0.05 91 1008.3
20260506122128 62 197 5.2 10.4 0.04 0.04 0.05 91 1008.5
20260506121628 62 198 4.3 11.3 0.04 0.04 0.04 90 1008.4
20260506121128 62 230 2.6 11.3 0.03 0.03 0.03 90 1008.6
20260506120628 62 222 0.9 7.0 0.03 0.03 0.03 89 1008.6
20260506120127 62 207 0.9 8.7 0.02 0.02 0.03 88 1008.7
20260506115629 63 237 0.0 8.7 0.02 0.02 0.02 88 1008.6
20260506115126 63 225 0.0 4.3 0.01 0.01 0.01 86 1008.5
20260506114624 64 234 0.0 7.8 0.01 0.01 0.01 85 1008.3
20260506114354 64 221 0.9 7.8 0.00 0.00 0.01 83 1008.1
20260506113622 64 203 1.7 8.7 0.00 0.00 0.00 82 1008.0
20260506113126 65 190 2.6 8.7 0.00 0.00 0.00 80 1007.9
20260506113122 64 190 2.6 8.7 0.00 0.00 0.00 81 1007.9
20260506112115 65 181 3.5 8.7 0.00 0.00 0.00 79 1007.9
20260506111615 65 188 4.3 12.2 0.00 0.00 0.00 78 1007.9
20260506111117 65 214 4.3 12.2 0.00 0.00 0.00 77 1007.8
20260506110848 65 190 1.7 9.6 0.00 0.00 0.00 77 1007.8
20260506110115 65 215 0.9 5.2 0.00 0.00 0.00 77 1007.7
20260506105846 65 176 0.0 3.5 0.00 0.00 0.00 77 1007.6
20260506105110 65 221 0.0 0.0 0.00 0.00 0.00 76 1007.5
20260506104609 65 194 0.0 4.3 0.00 0.00 0.00 77 1007.6
20260506104108 65 169 0.0 4.3 0.00 0.00 0.00 76 1007.4
20260506103610 65 175 0.0 5.2 0.00 0.00 0.00 76 1007.4
20260506103110 66 192 0.9 8.7 0.00 0.00 0.00 75 1007.3
20260506102611 66 171 0.0 8.7 0.00 0.00 0.00 74 1007.4
20260506102107 66 190 0.0 5.2 0.00 0.00 0.00 74 1007.3
20260506101605 66 205 0.9 5.2 0.00 0.00 0.00 73 1007.2
20260506101110 67 184 0.9 6.1 0.00 0.00 0.00 71 1007.2
20260506101106 66 238 0.9 6.1 0.00 0.00 0.00 71 1007.2
20260506100104 67 187 1.7 8.7 0.00 0.00 0.00 71 1007.1
20260506095835 67 234 3.5 8.7 0.00 0.00 0.00 70 1007.0
20260506095057 67 187 3.5 9.6 0.00 0.00 0.00 69 1006.9
20260506094829 67 182 2.6 9.6 0.00 0.00 0.00 69 1006.9
20260506094059 67 178 2.6 9.6 0.00 0.00 0.00 69 1006.9
20260506093558 67 190 2.6 7.8 0.00 0.00 0.00 68 1007.0
20260506093058 67 190 3.5 9.6 0.00 0.00 0.00 68 1007.1
20260506092558 68 225 4.3 8.7 0.00 0.00 0.00 67 1007.1
20260506092051 68 200 6.1 12.2 0.00 0.00 0.00 67 1007.1
20260506091551 68 171 4.3 13.0 0.00 0.00 0.00 67 1007.0
20260506091052 68 183 3.5 13.0 0.00 0.00 0.00 67 1007.3
20260506090551 68 196 3.5 11.3 0.00 0.00 0.00 66 1007.3
20260506090052 68 207 3.5 14.8 0.00 0.00 0.00 66 1007.5
20260506085553 68 252 6.1 14.8 0.00 0.00 0.00 66 1007.3
20260506085320 68 172 5.2 13.0 0.00 0.00 0.00 66 1007.3
20260506084818 68 184 3.5 9.6 0.00 0.00 0.00 66 1007.3
20260506084044 68 184 3.5 10.4 0.00 0.00 0.00 66 1007.3
20260506083816 68 180 3.5 10.4 0.00 0.00 0.00 65 1007.2
20260506083318 68 231 2.6 8.7 0.00 0.00 0.00 65 1007.3
20260506082545 68 192 2.6 7.8 0.00 0.00 0.00 65 1007.3
20260506082042 68 195 5.2 12.2 0.00 0.00 0.00 64 1007.4
20260506081542 68 198 4.3 12.2 0.00 0.00 0.00 64 1007.3
20260506081041 68 183 2.6 8.7 0.00 0.00 0.00 64 1007.3
20260506080540 69 165 3.5 8.7 0.00 0.00 0.00 64 1007.4
20260506073032 69 173 7.0 14.8 0.00 0.00 0.00 61 1007.3
20260506072533 69 219 5.2 14.8 0.00 0.00 0.00 62 1007.5
20260506072027 70 195 3.5 11.3 0.00 0.00 0.00 61 1007.5
20260506071526 70 197 6.1 11.3 0.00 0.00 0.00 61 1007.5
20260506071027 70 195 5.2 12.2 0.00 0.00 0.00 61 1007.5
20260506070528 70 221 5.2 13.0 0.00 0.00 0.00 60 1007.5